FW7490 Weather Reports


time (UTC)temp
C
wind
direction
speed
KPH
gust
KPH
rain 1hr
cm
rain 24hr
cm
rain mn
cm
humidity
%
barometer
mb
20260505063047 8 100 0.0 0.0 0.00 0.00 0.00 69 1012.9
20260505061609 8 100 0.0 1.6 0.00 0.00 0.00 67 1012.7
20260505060045 9 100 0.0 1.6 0.00 0.00 0.00 67 1012.7
20260505054554 9 100 0.0 3.2 0.00 0.00 0.00 66 1012.5
20260505053038 10 100 0.0 3.2 0.00 0.00 0.00 66 1012.4
20260505051537 10 100 0.0 0.0 0.00 0.00 0.00 65 1012.4
20260505041527 11 100 0.0 0.0 0.00 0.00 0.00 64 1012.2
20260505040026 11 100 0.0 1.6 0.00 0.00 0.00 65 1012.3
20260505034525 11 100 0.0 3.2 0.00 0.00 0.00 65 1012.3
20260505033034 12 100 0.0 0.0 0.00 0.00 0.00 63 1012.2
20260505031524 12 100 0.0 0.0 0.00 0.00 0.00 62 1012.3
20260505030024 12 100 0.0 1.6 0.00 0.00 0.00 62 1012.4
20260505024547 12 96 0.0 0.0 0.00 0.00 0.00 64 1012.4
20260505023029 12 94 0.0 0.0 0.00 0.00 0.00 64 1012.4
20260505021541 13 94 0.0 0.0 0.00 0.00 0.00 63 1012.4
20260505020022 13 94 0.0 0.0 0.00 0.00 0.00 60 1012.2
20260505014525 15 94 0.0 0.0 0.00 0.00 0.00 59 1012.1
20260505013021 15 94 0.0 0.0 0.00 0.00 0.00 58 1012.1
20260505011527 16 94 0.0 0.0 0.00 0.00 0.00 55 1011.9
20260505010021 17 94 0.0 0.0 0.00 0.00 0.00 54 1011.8
20260505004534 18 94 0.0 0.0 0.00 0.00 0.00 50 1011.7
20260505003019 19 94 0.0 0.0 0.00 0.00 0.00 47 1011.7
20260505001519 20 90 0.0 1.6 0.00 0.00 0.00 46 1011.5
20260505000019 21 317 0.0 0.0 0.00 0.00 0.00 39 1011.5
20260504234519 22 223 0.0 0.0 0.00 0.00 0.00 38 1011.5
20260504233016 23 225 0.0 4.8 0.00 0.00 0.00 34 1011.3
20260504231515 23 202 0.0 6.4 0.00 0.00 0.00 30 1011.5
20260504230015 24 296 3.2 9.7 0.00 0.00 0.00 28 1011.4
20260504224513 24 213 1.6 12.9 0.00 0.00 0.00 27 1011.5
20260504223012 25 171 1.6 9.7 0.00 0.00 0.00 27 1011.4
20260504221511 25 338 3.2 14.5 0.00 0.00 0.00 27 1011.5
20260504220010 25 205 3.2 9.7 0.00 0.00 0.00 27 1011.5
20260504214509 25 355 3.2 17.7 0.00 0.00 0.00 27 1011.5
20260504213007 25 246 3.2 12.9 0.00 0.00 0.00 27 1011.6
20260504211506 25 217 1.6 14.5 0.00 0.00 0.00 32 1011.6
20260504210006 25 234 4.8 19.3 0.00 0.00 0.00 29 1011.8
20260504204505 25 285 6.4 16.1 0.00 0.00 0.00 29 1012.0
20260504203059 24 200 4.8 16.1 0.00 0.00 0.00 30 1012.3
20260504201603 25 192 6.4 22.5 0.00 0.00 0.00 29 1012.3
20260504194549 23 164 1.6 14.5 0.00 0.00 0.00 34 1012.7
20260504193047 23 322 1.6 11.3 0.00 0.00 0.00 36 1013.0
20260504191544 23 342 4.8 12.9 0.00 0.00 0.00 35 1013.2
20260504190043 23 155 4.8 16.1 0.00 0.00 0.00 36 1013.7
20260504184540 22 194 4.8 16.1 0.00 0.00 0.00 37 1014.0
20260504183037 22 278 1.6 12.9 0.00 0.00 0.00 37 1014.2
20260504181535 22 229 3.2 12.9 0.00 0.00 0.00 39 1014.4
20260504180032 21 173 3.2 16.1 0.00 0.00 0.00 38 1014.5
20260504174529 21 237 1.6 12.9 0.00 0.00 0.00 38 1014.7
20260504173025 20 286 4.8 17.7 0.00 0.00 0.00 38 1015.0
20260504171522 20 261 3.2 16.1 0.00 0.00 0.00 41 1015.1
20260504081549 2 305 0.0 0.0 0.00 0.00 0.00 74 1017.1